Regional Weather Roundup
Issued by NWS

Home | Current Version | Previous Version | Text Only | Print | Product List | Glossary On
Versions: 1 2 3 4 5 6 7 8 9 10 11 12 13 14 15 16 17 18 19 20 21 22 23 24 25 26 27 28 29 30 31 32 33 34 35 36 37 38 39 40 41 42 43 44 45 46 47 48 49 50
000
ASUS43 KLMK 241910
RWRKY
KENTUCKY REGIONAL WEATHER ROUNDUP
NATIONAL WEATHER SERVICE LOUISVILLE KY
300 PM EDT SUN SEP 24 2017

NOTE "FAIR" INDICATES FEW OR NO CLOUDS BELOW 12,000 FEET
WITH NO SIGNIFICANT WEATHER AND/OR OBSTRUCTIONS TO VISIBILITY.

KYZ001>023-026-027-061>063-070>075-242000-
WESTERN AND SOUTH CENTRAL KENTUCKY

CITY           SKY/WX    TMP DP  RH WIND       PRES   REMARKS
PADUCAH        MOSUNNY   90  65  43 SE9       29.99F HX  92
HENDERSON      SUNNY     90  65  43 N7        30.02F HX  92
OWENSBORO      SUNNY     91  64  40 VRB5      30.02F HX  92
HOPKINSVILLE   PTSUNNY   88  69  53 N6        30.01F HX  92
BOWLING GREEN  MOSUNNY   87  65  47 CALM      30.03F
GLASGOW        MOSUNNY   85  68  57 CALM      30.04F
$$

KYZ024-025-028>034-038-045-046-053-242000-
NORTH CENTRAL KENTUCKY

CITY           SKY/WX    TMP DP  RH WIND       PRES   REMARKS
LOUISVILLE/SDF MOSUNNY   90  55  30 SE8       30.04F
LOUISVILLE/LOU SUNNY     90  58  33 E8        30.04F
FORT KNOX      SUNNY     87  66  50 E7        30.03F
$$

KYZ035>037-039>044-047>052-055>060-089>105-242000-
NORTHEAST KENTUCKY

CITY           SKY/WX    TMP DP  RH WIND       PRES   REMARKS
LEXINGTON      SUNNY     88  59  37 E8        30.07F
COVINGTON      MOSUNNY   88  55  32 E8        30.08F
FRANKFORT      SUNNY     89  55  31 E10       30.05F
$$

KYZ054-064>069-076>088-106>120-242000-
SOUTHEAST KENTUCKY

CITY           SKY/WX    TMP DP  RH WIND       PRES   REMARKS
JACKSON        SUNNY     83  61  47 CALM      30.09F
LONDON         SUNNY     84  62  47 W3        30.08F
SOMERSET       SUNNY     84  61  45 W3        30.07F
MIDDLESBORO    SUNNY     85  63  47 CALM      30.08F
MONTICELLO     CLOUDY    87  66  49 NW9       30.08F
$$




USA.gov is the U.S. government's official web portal to all federal, state and local government web resources and services.